Regional Weather Roundup
Issued by NWS Midland/Odessa, TX

Skip options and go directly to product.
Home | Oldest Version | Previous Version | Current Version | All | Graphics & Text | Save Text | Print | Product List | Glossary On

Skip product version selection by date and time.   
045
ASUS44 KMAF 131301
RWRMAF
MIDLAND AREA WEATHER ROUNDUP
NATIONAL WEATHER SERVICE MIDLAND TX
700 AM CST SAT FEB 13 2016

...IN SOUTHWEST TEXAS AND SOUTHEAST NEW MEXICO...

CITY           SKY/WX    TMP DP  RH WIND       PRES   REMARKS
ALPINE         CLOUDY    41  20  43 SW7       30.35R WCI  36
ANDREWS        FAIR      33  29  82 E6        30.30S WCI  28
ARTESIA        CLOUDY    32  23  69 NW7       30.30R WCI  26
BIG SPRING     CLOUDY    39  30  69 CALM      30.33S
CARLSBAD       CLOUDY    31  23  72 NW7       30.28R WCI  24
DRYDEN           N/A     48  38  68 N9        30.28R
FORT STOCKTON  CLOUDY    44  30  57 S8        30.28R WCI  39
GUAD PASS      CLOUDY    54  16  22 SE6       30.32S
HOBBS          CLEAR     36  28  75 CALM      30.31R
MARFA          CLOUDY    28  17  63 N9        30.33R WCI  19
MIDLAND AIRPK  CLEAR     41  32  69 E5        30.32R WCI  38
MIDLAND INTL   CLOUDY    42  32  67 E6        30.31R WCI  38
ODESSA         CLOUDY    39  30  70 E8        30.31R WCI  33
PECOS          CLOUDY    32  27  80 NW6       30.28R WCI  26
PRESIDIO       FAIR      47  18  31 N5        30.26R
SEMINOLE       CLOUDY    34  29  84 E5        30.31R WCI  30
SNYDER           N/A     35  32  88 NE7       30.34S WCI  29
WINK           CLOUDY    35  29  78 N3        30.26R
$$
...OTHER STATIONS IN TEXAS...

CITY           SKY/WX    TMP DP  RH WIND       PRES   REMARKS
ABILENE        CLEAR     39  32  76 SE3       30.35R
AMARILLO       CLEAR     29  27  92 S13       30.30F WCI  19
AUSTIN         PTCLDY    45  39  79 N7        30.33R
BROWNSVILLE    CLEAR     56  56 100 E6        30.29R
CORPUS CHRISTI PTCLDY    51  50  96 SE5       30.30R FOG
DALLAS FTW     PTCLDY    38  29  70 N7        30.39R WCI  33
DEL RIO        CLEAR     49  41  74 CALM      30.27R
EL PASO        MOCLDY    39  14  36 N6        30.26R WCI  35
HOUSTON INT    MOCLDY    52  48  86 E6        30.35R
LUBBOCK        CLOUDY    32  28  85 E7        30.31F WCI  26
SAN ANGELO     CLOUDY    33  27  78 CALM      30.32R
SAN ANTONIO    PTCLDY    48  40  73 CALM      30.32R
WACO           CLEAR     39  31  72 N3        30.38R
WICHITA FALLS  NOT AVBL
$$
...OTHER LOCATIONS IN NEW MEXICO...

CITY           SKY/WX    TMP DP  RH WIND       PRES   REMARKS
ALAMAGORDO     CLOUDY    37  10  32 N7        30.28S WCI  32
ALBUQUERQUE    CLOUDY    35  20  54 CALM      30.30S
CANNON AFB     CLEAR     33  32  95 SE1       30.30R
CLOVIS         CLEAR     28  25  86 S6        30.31R WCI  22
HOLLOMAN AFB   CLOUDY    36  11  35 E2        30.26S
ROSWELL        CLOUDY    30  21  69 CALM      30.28S
RUIDOSO          N/A     45  10  24 W6        30.36S
SANTA FE       CLOUDY    30  22  72 N12       30.31R WCI  20
TRUTH OR CONSE MOCLDY    41  11  29 N7        30.27S WCI  36
TUCUMCARI      CLOUDY    38  27  64 W5        30.26S WCI  34
$$

USA.gov is the U.S. government's official web portal to all federal, state and local government web resources and services.